Find Starlink 30227

NORAD ID: 57505 Int'l Des: 2023-113 Owner: SPXS Country: US Constellation: starlink operational
LEOCIRCULAR

リアルタイム位置

3D地球を読み込み中...

Starlink 30227について

説明を読み込み中...

次回通過

Passes for default location (London). Set your location on the main map for personalized predictions.

高度履歴

Loading altitude history...

軌道要素

1 57505U 23113L 26130.08810126 .00020636 00000-0 86611-3 0 9992
2 57505 43.0014 19.0251 0007292 227.1841 132.8396 15.23080044153186
Epoch: May 10, 2026 • Age: 11 hours

現在のステータス

高度 503.8 km
速度 7.62 km/s
衛星直下点 42.80°N, 26.45°E
打ち上げ日 Aug 7, 2023
運用期間 2.7 years
タイプ internet

技術仕様

分類 Payload
質量 730.00 kg
乾燥質量 700.00 kg
総質量 730.00 kg
長さ 0.30 m
直径 4.10 m
スパン 29.00 m
形状 Box + pan
製造者 SPXS
バスタイプ Starlink V2M
フェーズステータス In Orbit
所有者/国 SPXS/US

Most Searched